Location: Boiro
(42.6475°N, 8.8834°W)
Time: 14:26:22
(UTC+01:00)

Envisat - Pass Details

Date: 25 October 2021
Orbit: 764 x 766 km, 98.2° (Epoch: 07 December)

Event Time Altitude Azimuth Distance (km) Brightness Sun altitude
Rises 07:21:15 0° 17° (NNE) 3,242 6.5 -18.9°
Reaches altitude 10° 07:23:38 10° 22° (NNE) 2,311 5.8 -18.5°
Maximum altitude 07:28:37 53° 100° (E) 935 3.8 -17.6°
Drops below altitude 10° 07:33:33 10° 177° (S) 2,293 5.5 -16.7°
Sets 07:35:53 0° 182° (S) 3,214 6.2 -16.2°
